Weather Roundup
Issued by NWS

Home | Current Version | Previous Version | Graphics & Text | Print | Product List | Glossary Off
Versions: 1 2 3 4 5 6 7 8 9 10 11 12 13 14 15 16 17 18 19 20 21 22 23 24 25 26 27 28 29 30 31 32 33 34 35 36 37 38 39 40 41 42 43 44 45 46 47 48 49 50

000
NZUS93 KARX 200610
HRRWXR

CURRENT HOURLY OBSERVATIONS ACROSS
MUCH OF THE UPPER MISSISSIPPI VALLEY
NATIONAL WEATHER SERVICE LA CROSSE WI
1200 AM CST FRI JAN 20 2017


...SOUTHEAST MINNESOTA...


CITY           SKY/WX    TMP DP  RH WIND       PRES   REMARKS
ROCHESTER      CLOUDY    33  33 100 E9        29.66F FOG     WCI  25
ROCHESTER/MAYO CLOUDY    35  35 100 E7        29.67F WCI  29
WINONA         CLOUDY    34  34 100 SE6       29.72F FOG     WCI  29
AUSTIN         FOG       34  32  93 E6        29.64F VSB 1   WCI  29
ALBERT LEA     FOG       34  34 100 SE6       29.63F VSB 1/2 WCI  29
DODGE CENTER   MIX PCPN  34  34 100 E6        29.65F VSB 1/2 WCI  29
PRESTON        FOG       33  32  96 E8        29.67F VSB 1/2 WCI  26
OWATONNA       DRIZZLE   36  34  93 E6        29.65F WCI  31
FARIBAULT      DRIZZLE   36  34  93 E6        29.66F WCI  31
$$

...ELSEWHERE IN MINNESOTA...


CITY           SKY/WX    TMP DP  RH WIND       PRES   REMARKS
MINNEAPOLIS    CLOUDY    36  33  89 SE6       29.68S FOG     WCI  31
INTNL FALLS    CLOUDY    38  36  92 S5        29.60F FOG     WCI  34
DULUTH         CLOUDY    33  32  96 SE6       29.66F WCI  28
RED WING       RAIN      36  34  93 SE8       29.69F WCI  29
REDWOOD FALLS  FOG       34  32  92 SE6       29.60F VSB 1/4 WCI  29
MANKATO        CLOUDY    34  33  96 SE8       29.64F FOG     WCI  27
WORTHINGTON    FOG       34  34 100 S7        29.59S VSB 1/2 WCI  28
FAIRMONT       LGT RAIN  34  33  96 SE8       29.62F VSB 1/2 WCI  27
$$

...SOUTHWEST WISCONSIN...


CITY           SKY/WX    TMP DP  RH WIND       PRES   REMARKS
LA CROSSE      LGT RAIN  38  34  85 SE5       29.72F FOG     WCI  34
PRAIRIE DU CHI CLOUDY    36  35  96 CALM      29.69F FOG
BOSCOBEL       CLOUDY    36  35  96 NE3       29.70F FOG
LONE ROCK      CLOUDY    37  34  89 E9        29.71F FOG     WCI  30
PLATTEVILLE    CLOUDY    35  35 100 E7        29.67F WCI  29
FORT MC COY    RAIN      34  33  99 E8        29.73F WCI  27
CAMP DOUGLAS   LGT RAIN  34  33  98 E6        29.73F FOG     WCI  29
MAUSTON-NEW LI RAIN      34  34  99 SE3       29.73F
VIROQUA        CLOUDY    34  34 100 E7        29.70F VSB 1   WCI  28
WIS DELLS      LGT RAIN  34  33  98 E7        29.73F VSB 1   WCI  28
$$

...ELSEWHERE IN WISCONSIN...


CITY           SKY/WX    TMP DP  RH WIND       PRES   REMARKS
MILWAUKEE      LGT RAIN  38  36  92 E8        29.75F FOG     WCI  32
MADISON        RAIN      35  34  96 E9        29.73F FOG     WCI  28
GREEN BAY      FOG       34  34 100 E3        29.80F VSB 1/2
EAU CLAIRE     LGT RAIN  36  33  89 E7        29.71F FOG     WCI  30
BLACK RVR FLS  RAIN      35  35 100 E3        29.73F
MEDFORD        CLOUDY    32  31  97 SE6       29.74F FOG     WCI  26
WAUSAU         CLOUDY    31  31 100 CALM      29.75F FOG
WIS RAPIDS     LGT RAIN  33  33 100 E5        29.76F FOG     WCI  29
MARSHFIELD     LGT RAIN  33  31  92 E7        29.73F FOG     WCI  27
RICE LAKE      CLOUDY    35  32  88 SE7       29.73F WCI  29
$$

...NORTHEAST IOWA...


CITY           SKY/WX    TMP DP  RH WIND       PRES   REMARKS
WATERLOO       FOG       35  34  96 E7        29.64F VSB 1/2 WCI  29
DUBUQUE        FOG       36  36 100 E8        29.65F VSB 1/4 WCI  30
DECORAH        MIX PCPN  34  34 100 E9        29.66F VSB 1   WCI  26
MASON CITY     FOG       34  33  96 SE7       29.64F VSB 1/4 WCI  28
CHARLES CITY   FOG       34  34 100 E8        29.65F VSB 1/2 WCI  27
OELWEIN        FOG       34  34 100 E9        29.66F VSB 3/4 WCI  26
$$

...ELSEWHERE IN IOWA...


CITY           SKY/WX    TMP DP  RH WIND       PRES   REMARKS
DES MOINES     FOG       38  36  92 CALM      29.62F VSB 1/8
IOWA CITY      FOG       37  37 100 NE5       29.66F VSB 1   WCI  33
FORT DODGE     CLOUDY    36  34  93 S5        29.62F VSB 3/4 WCI  32
MARSHALLTOWN   FOG       35  35 100 E5        29.62F VSB 1/4 WCI  31
CEDAR RAPIDS   FOG       35  35 100 E7        29.64F VSB 3/4 WCI  29
$$

...NORTHERN ILLINOIS...


CITY           SKY/WX    TMP DP  RH WIND       PRES   REMARKS
CHICAGO-OHARE  LGT RAIN  38  37  97 E8        29.68F FOG     WCI  32
CHICAGO-MIDWAY LGT RAIN  38  36  92 E12G23    29.69F FOG     WCI  30
MOLINE         CLOUDY    38  36  92 E7        29.63F FOG     WCI  33
ROCKFORD       CLOUDY    38  36  92 NE8       29.69F FOG     WCI  32
PEORIA         CLOUDY    40  39  97 NE6       29.63F FOG
$$

NOTE: "FAIR" INDICATES FEW OR NO CLOUDS BELOW 12,000 FEET WITH NO
SIGNIFICANT WEATHER AND/OR OBSTRUCTIONS TO VISIBILITY. WIND
SPEEDS ARE IN MILES-PER-HOUR.




USA.gov is the U.S. government's official web portal to all federal, state and local government web resources and services.